AirNav   Air Wisconsin pilot careers
 
 404 users online  

D88 Pratt's Eastern Divide Airport
Sherman, New York, USA

GOING TO SHERMAN?


FAA INFORMATION EFFECTIVE 08 NOVEMBER 2018

Location

FAA Identifier: D88
Lat/Long: 42-09-00.2030N / 079-41-09.1720W
42-09.003383N / 079-41.152867W
42.1500564 / -79.6858811
(estimated)
Elevation: 1640 ft. / 500 m (estimated)
Variation: 09W (1985)
From city: 4 miles W of SHERMAN, NY
(3 MI NE OF FINDLEY LAKE.)
Time zone: UTC -5 (UTC -4 during Daylight Saving Time)
Zip code: 14781

Airport Operations

Airport use: Open to the public
Activation date: 02/1961
Control tower: no
ARTCC: CLEVELAND CENTER
FSS: BUFFALO FLIGHT SERVICE STATION
NOTAMs facility: BUF (NOTAM-D service available)
Attendance: IREG
Wind indicator: yes
Segmented circle: no

Airport Communications

CTAF: 122.9
WX AWOS-3PT at JHW (19 nm E): 118.425 (716-664-6005)
  • CD THRU FLT SVCS 1-888-766-8267.

Nearby radio navigation aids

VOR radial/distance  VOR name  Freq  Var
JHWr272/25.2JAMESTOWN VOR/DME114.7007W
ERIr080/28.2ERIE VORTAC109.4006W
TDTr344/28.8TIDIOUTE VORTAC117.6009W

 
NDB name  Hdg/Dist  Freq  Var  ID
CORRY003/14.325810WORJ --- .-. .---
CASCADE094/18.737210WCQD -.-. --.- -..

Airport Services

Parking: hangars and tiedowns

Runway Information

Runway 8/26

Dimensions: 2600 x 75 ft. / 792 x 23 m
Surface: turf, in good condition
RUNWAY 8  RUNWAY 26
Traffic pattern: leftleft
Obstructions: 51 ft. trees, 124 ft. left of centerline
+28 FT PLINES RUNNING ALONG S SIDE OF HAZEN RD SIGHTED 115 FT L & 495 FT FM RY 08 END.
37 ft. trees, 167 ft. from runway, 96 ft. right of centerline, 4:1 slope to clear
RY 26, 37 FT TREES 195 FM THLD 85 FT R.

Airport Ownership and Management from official FAA records

Ownership: Privately-owned
Owner: DAVID & SYLVIA DANIELS
12553 STATION ROAD
NORTH EAST, PA 16428
Phone 814-725-5923
Manager: SYLVIA S. DANIELS
12553 STATION ROAD
NORTH EAST, PA 16428
Phone 814-725-5923

Airport Operational Statistics

Aircraft based on the field: 8
Single engine airplanes: 3
Ultralights: 5
    
Aircraft operations: 200/year *
50% transient general aviation
50% local general aviation
* for 12-month period ending 20 June 2018

Additional Remarks

ULTRALGT ON & INVOF ARPT.
THERE ARE 28 FT PLINES RUNNING ALONG S SIDE OF HAZEN RD SIGHTED 115 FT LEFT & 495 FT FM RY 08 END.
DEER ON & INVOF RY.
FOR IFR CLEARANCE CTC CLEVELAND ARTCC (ZOB) 127.075/292.175 OR CALL ZOB 440-774-0489.

Instrument Procedures

There are no published instrument procedures at D88.

Some nearby airports with instrument procedures:

8G2 - Corry-Lawrence Airport (15 nm S)
KJHW - Chautauqua County/Jamestown Airport (19 nm E)
KERI - Erie International Airport/Tom Ridge Field (22 nm W)
KDKK - Chautauqua County/Dunkirk Airport (28 nm NE)
6G1 - Titusville Airport (33 nm S)
 
Loc | Ops | Rwys | IFR | FBO | Links
Com | Nav | Svcs | Stats | Notes


 
Area around D88 (Pratt's Eastern Divide Airport)
 
Road maps at: MapQuest Bing Google
 
Aerial photo
WARNING: Photo may not be current or correct
Aerial photo of D88 (Pratt's Eastern Divide Airport)
Do you have a better or more recent aerial photo of Pratt's Eastern Divide Airport that you would like to share? If so, please send us your photo.

 
Sectional chart

 
Airport distance calculator
Flying to Pratt's Eastern Divide Airport? Find the distance to fly.

From to D88

Sunrise and sunset
Times for 16-Nov-2018
 Local
(UTC-5)
 Zulu
(UTC)
Morning civil twilight06:4111:41
Sunrise07:1112:11
Sunset16:5621:56
Evening civil twilight17:2622:26

Current date and time
Zulu (UTC)  16-Nov-2018 09:02:58
Local (UTC-5)  16-Nov-2018 04:02:58
 
METAR
8G2 
15nm S 
SuperAWOS
160755Z AUTO 00000KT 3 1/2SM BR M02/M02 A2981
KJHW 
19nm E 
160856Z AUTO 22005KT 2 1/2SM -SN BR BKN002 OVC011 M02/M02 A2974 RMK AO2 SLP094 P0005 60015 T10171017 56018 FZRANO
KERI 
22nm W 
160851Z 21008KT 10SM OVC010 02/00 A2978 RMK AO2 RAB18E34SNE18 SLP092 P0001 60002 T00170000 56013
KDKK 
28nm NE 
160853Z AUTO 20007KT 6SM -SN BR OVC013 01/M01 A2977 RMK AO2 SLP087 P0000 60004 T00061006 56022
CWPS 
29nm NW 
160800Z AUTO 20013KT 05/02 RMK AO1 PK WND 19017/0755 SLP081 T00470023 56017
TAF
KJHW 
19nm E 
160527Z 1606/1706 00000KT 2SM -SN OVC010 FM161400 24011G19KT P6SM OVC007 FM162000 24014G25KT 4SM -SHRASN BR OVC007 FM170300 26011G20KT P6SM OVC007
KERI 
22nm W 
160533Z 1606/1706 19008KT 4SM -SN OVC015 TEMPO 1606/1608 1SM -SN OVC003 FM160800 22010G20KT 3SM -SN OVC003 FM161400 22015G25KT P6SM OVC008 FM161800 26020G32KT P6SM OVC012 FM162300 27018G28KT P6SM -SHSN OVC012
NOTAMs
Click for the latest NOTAMs
NOTAMs are issued by the DoD/FAA and will open in a separate window not controlled by AirNav.

 

 
 

Would you like to see your business listed on this page?

 If your business provides an interesting product or service to pilots, flight crews, aircraft, or users of the Pratt's Eastern Divide Airport, you should consider listing it here.  To start the listing process, click on the button below
 
Add a business
 

Other Pages about Pratt's Eastern Divide Airport

Update a link
 
Copyright © AirNav, LLC. All rights reserved. Privacy Policy  Contact